[[{"header":{"parameterUnit":"m.s-1","parameterCategory":1,"la1":30.2991,"la2":30.254,"lo1":-89.0895,"lo2":-89.0444,"dy":0.0017,"dx":0.0017,"nx":28,"ny":28,"refTime":"2025-03-25T21:00:00:Z","depth":0,"parameterNumber":2,"parameterNumberName":"U-component_of_WINDS"},"data":[0,0,0,0,0,0,0,0,0,0,0,0,0,0,0,0,0,0,0,0,0,0,0,0,0,0,0,0,0,0,0,0,0,0,0,0,0,0,0,0,0,0,0,0,0,0,0,0,0,0,0,0,0,0,0,0,0,0,-0.8686,-0.8687,0,-0.8733,-0.8733,-0.8734,-0.8685,-0.8683,-0.8681,-0.8679,-0.8731,-0.8734,-0.8737,0,0,0,0,0,0,0,0,0,0,0,0,0,-0.8558,-0.8561,-0.8686,-0.8687,-0.8687,-0.8733,-0.8733,-0.8734,-0.8685,-0.8683,-0.868,-0.8678,-0.873,-0.8733,-0.8737,0,0,0,0,0,0,0,0,0,0,0,0,0,-0.861,-0.8561,-0.8686,-0.8668,-0.8667,-0.8733,-0.8733,-0.8734,-0.8685,-0.8683,-0.868,-0.8677,-0.8729,-0.8733,-0.8738,-0.8825,0,0,-0.8752,-0.8754,0,0,0,0,0,0,0,0,-0.8607,-0.8615,-0.867,-0.867,-0.8668,-0.87,-0.8707,-0.8765,-0.8686,-0.8679,-0.8679,-0.8676,-0.8723,-0.8728,-0.8743,-0.8827,-0.8829,-0.8753,-0.8756,-0.8758,-0.8759,0,0,0,0,0,0,0,-0.8604,-0.8613,-0.8705,-0.8671,-0.867,-0.8659,-0.8663,-0.8718,-0.8717,-0.8679,-0.8676,-0.8682,-0.8722,-0.8739,-0.8744,-0.883,-0.8753,-0.8757,-0.876,-0.8762,-0.8988,-0.8991,0,0,0,0,0,0,-0.8602,-0.861,-0.8703,-0.8706,-0.863,-0.8664,-0.8668,-0.8693,-0.8716,-0.8716,-0.8684,-0.8679,-0.8732,-0.8739,-0.8746,-0.885,-0.8758,-0.8762,-0.8765,-0.8985,-0.8988,-0.8992,0,0,0,0,0,0,-0.8599,-0.861,-0.8701,-0.8657,-0.8668,-0.8669,-0.8697,-0.8695,-0.8712,-0.8719,-0.8719,-0.8701,-0.873,-0.8739,-0.8805,-0.8851,-0.8764,-0.8769,-0.8981,-0.8986,-0.899,-0.9058,0,0,0,0,0,0,-0.8596,-0.861,-0.8642,-0.8658,-0.867,-0.8759,-0.8699,-0.8698,-0.872,-0.8714,-0.8736,-0.8736,-0.8729,-0.8798,-0.881,-0.8856,-0.8772,-0.8977,-0.8983,-0.8989,-0.9052,-0.9064,-0.9075,0,0,0,0,0,-0.8591,-0.866,-0.8644,-0.8656,-0.8711,-0.8762,-0.8769,-0.8758,-0.8724,-0.8757,-0.8761,-0.8736,-0.8843,-0.8806,-0.8818,-0.8866,-0.8974,-0.8981,-0.8988,-0.9046,-0.9062,-0.9075,0,0,0,0,0,0,-0.8651,-0.8662,-0.8644,-0.872,-0.874,-0.8754,-0.8795,-0.8774,-0.8806,-0.8799,-0.8784,-0.879,-0.886,-0.8869,-0.8827,-0.8951,-0.8903,-0.8913,-0.8943,-0.8958,-0.897,-0.8967,-0.8776,0,0,0,0,0,-0.8673,-0.8712,-0.872,-0.8787,-0.8797,-0.8795,-0.8817,-0.8806,-0.8827,-0.8835,-0.8845,-0.8867,-0.8906,-0.8932,-0.8968,-0.9052,-0.9057,-0.9091,-0.9103,-0.9112,-0.9122,-0.9168,-0.9184,-0.9015,-0.9015,-0.9015,0,0,-0.8719,-0.873,-0.8756,-0.8799,-0.8813,-0.8856,-0.8802,-0.885,-0.8882,-0.8843,-0.8906,-0.8914,-0.8937,-0.9013,-0.9047,-0.9023,-0.9169,-0.9121,-0.9129,-0.9134,-0.9177,-0.9193,-0.9207,-0.902,-0.9019,-0.9018,0,0,-0.8825,-0.8836,-0.8893,-0.8908,-0.893,-0.8927,-0.8941,-0.8957,-0.8961,-0.9023,-0.8995,-0.9033,-0.91,-0.9118,-0.9136,-0.9248,-0.9226,-0.926,-0.9323,-0.9368,-0.9381,-0.9393,-0.9434,-0.9449,-0.9269,-0.9269,-0.9269,0,-0.888,-0.8942,-0.8925,-0.8975,-0.8995,-0.896,-0.9018,-0.9034,-0.9067,-0.9082,-0.9054,-0.9138,-0.9151,-0.9231,-0.9258,-0.9273,-0.9289,-0.9259,-0.938,-0.9392,-0.9402,-0.9442,-0.9457,-0.9273,-0.9273,-0.9272,-0.9272,0,-0.9009,-0.9053,-0.9096,-0.9128,-0.9152,-0.9206,-0.9199,-0.9226,-0.9212,-0.9213,-0.9277,-0.9292,-0.9331,-0.9348,-0.9336,-0.9426,-0.9411,-0.9382,-0.9334,-0.9423,-0.946,-0.9474,-0.9279,-0.9278,-0.9276,-0.9275,0,0,-0.9157,-0.9177,-0.9194,-0.9208,-0.9228,-0.9262,-0.9314,-0.935,-0.9375,-0.9398,-0.9443,-0.9499,-0.9472,-0.9493,-0.9482,-0.9521,-0.961,-0.9487,-0.9488,-0.9511,-0.9712,-0.9736,-0.9753,-0.9595,-0.9597,-0.96,-0.9711,0,-0.9265,-0.9354,-0.934,-0.9427,-0.9467,-0.9434,-0.9479,-0.9498,-0.9499,-0.9535,-0.9536,-0.9578,-0.9538,-0.955,-0.9587,-0.9592,-0.9651,-0.9583,-0.9638,-0.964,-0.9635,-0.9772,-0.9797,-0.9902,-0.9725,-0.9727,-0.9729,0,-0.9403,-0.943,-0.9521,-0.9535,-0.9552,-0.9593,-0.9625,-0.9658,-0.9679,-0.9677,-0.9699,-0.9681,-0.9734,-0.9683,-0.9757,-0.9711,-0.9732,-0.9738,-0.9742,-0.9748,-0.9692,-0.9785,-0.9935,-0.9951,-0.9751,-0.9749,-0.9748,0,-0.9504,-0.9563,-0.9625,-0.9638,-0.9655,-0.9685,-0.9694,-0.9711,-0.9734,-0.9762,-0.9777,-0.9811,-0.9831,-0.9858,-0.985,-0.9814,-0.9927,-0.9874,-0.9928,-0.9929,-0.9956,-0.9955,-1.0114,-0.9966,-0.9966,-0.9965,-0.9965,0,-0.9627,-0.9684,-0.967,-0.9709,-0.9772,-0.9755,-0.9819,-0.9824,-0.9839,-0.9879,-0.9851,-0.9889,-0.9875,-0.9913,-0.9907,-0.997,-0.9978,-0.998,-0.9978,-0.9983,-0.9984,-0.9999,-0.9992,-0.9969,-0.9968,-0.9968,-0.9967,0,-0.9751,-0.9744,-0.981,-0.982,-0.9824,-0.9871,-0.9881,-0.9917,-0.9915,-0.9966,-0.9977,-0.9975,-1.0018,-1.0012,-1.006,-1.0055,-1.0134,-1.0122,-1.0127,-1.0126,-1.0181,-1.0176,-1.0357,-1.038,-1.0215,-1.0217,-1.0218,0,-0.9832,-0.9875,-0.989,-0.9914,-0.9924,-0.9963,-0.9986,-0.9971,-0.9996,-1.0021,-1.0055,-1.0095,-1.0126,-1.0195,-1.0199,-1.0236,-1.0226,-1.0287,-1.0232,-1.0236,-1.023,-1.0228,-1.0233,-1.0299,-1.0301,-1.0302,-1.0303,0,-0.9976,-0.997,-1.0003,-1.0035,-1.0062,-1.0087,-1.0109,-1.013,-1.0117,-1.0146,-1.0189,-1.0213,-1.026,-1.0301,-1.0335,-1.0345,-1.0323,-1.032,-1.0335,-1.0342,-1.0344,-1.0346,-1.016,-1.0317,-1.0315,-1.0314,-1.0314,-1.0313,-1.0082,-1.0119,-1.0135,-1.0173,-1.0187,-1.0208,-1.0243,-1.0245,-1.028,-1.0317,-1.0306,-1.0354,-1.0373,-1.0416,-1.043,-1.0468,-1.0446,-1.0467,-1.0473,-1.0479,-1.0486,-1.0336,-1.0474,-1.0474,-1.0473,-1.0473,-1.0473,0,-1.0226,-1.0234,-1.0269,-1.03,-1.033,-1.0304,-1.0327,-1.0354,-1.0397,-1.0415,-1.0446,-1.0495,-1.0533,-1.0539,-1.0576,-1.0606,-1.0597,-1.0617,-1.0616,-1.0619,-1.0503,-1.0488,-1.0623,-1.0623,-1.0623,-1.0623,-1.0623,-1.0623,-1.0305,-1.0366,-1.0362,-1.0431,-1.0438,-1.0485,-1.05,-1.052,-1.0535,-1.059,-1.0622,-1.0625,-1.0639,-1.0676,-1.0711,-1.0711,-1.0727,-1.0751,-1.0749,-1.0641,-1.0627,-1.0612,-1.0598,-1.0754,-1.0755,-1.0861,-1.0862,-1.0863]},{"header":{"parameterUnit":"m.s-1","parameterCategory":1,"la1":30.2991,"la2":30.254,"lo1":-89.0895,"lo2":-89.0444,"dy":0.0017,"dx":0.0017,"nx":28,"ny":28,"refTime":"2025-03-25T21:00:00:Z","depth":0,"parameterNumber":3,"parameterNumberName":"V-component_of_WINDS"},"data":[0,0,0,0,0,0,0,0,0,0,0,0,0,0,0,0,0,0,0,0,0,0,0,0,0,0,0,0,0,0,0,0,0,0,0,0,0,0,0,0,0,0,0,0,0,0,0,0,0,0,0,0,0,0,0,0,0,0,-2.4388,-2.4388,0,-2.4395,-2.4395,-2.4395,-2.4355,-2.4354,-2.4353,-2.4352,-2.4357,-2.4358,-2.436,0,0,0,0,0,0,0,0,0,0,0,0,0,-2.4337,-2.4339,-2.4388,-2.4388,-2.4388,-2.4395,-2.4395,-2.4395,-2.4355,-2.4354,-2.4352,-2.4351,-2.4357,-2.4358,-2.436,0,0,0,0,0,0,0,0,0,0,0,0,0,-2.4353,-2.4339,-2.4388,-2.4369,-2.4367,-2.4395,-2.4395,-2.4395,-2.4355,-2.4354,-2.4352,-2.435,-2.4356,-2.4358,-2.436,-2.4406,0,0,-2.4365,-2.4366,0,0,0,0,0,0,0,0,-2.4353,-2.4355,-2.4372,-2.437,-2.4368,-2.4372,-2.4379,-2.4399,-2.4356,-2.436,-2.4352,-2.435,-2.4363,-2.4365,-2.437,-2.4406,-2.4406,-2.4366,-2.4367,-2.4367,-2.4368,0,0,0,0,0,0,0,-2.4352,-2.4355,-2.4391,-2.4372,-2.437,-2.4359,-2.436,-2.4383,-2.4371,-2.4359,-2.4356,-2.4358,-2.4362,-2.4368,-2.437,-2.4406,-2.4366,-2.4367,-2.4368,-2.4369,-2.4481,-2.4483,0,0,0,0,0,0,-2.4353,-2.4354,-2.439,-2.4391,-2.4356,-2.4362,-2.4362,-2.4373,-2.4371,-2.4369,-2.4359,-2.4356,-2.4366,-2.4367,-2.437,-2.4424,-2.4367,-2.4369,-2.437,-2.4479,-2.4481,-2.4483,0,0,0,0,0,0,-2.4352,-2.4357,-2.439,-2.4372,-2.4375,-2.4364,-2.4377,-2.4374,-2.438,-2.4371,-2.4368,-2.4368,-2.4364,-2.4367,-2.4397,-2.4423,-2.437,-2.4372,-2.4477,-2.448,-2.4482,-2.4532,0,0,0,0,0,0,-2.4351,-2.4357,-2.4374,-2.4372,-2.4376,-2.4418,-2.4378,-2.4375,-2.4383,-2.4379,-2.4378,-2.4376,-2.4363,-2.4395,-2.4399,-2.4425,-2.4373,-2.4474,-2.4478,-2.4481,-2.4528,-2.4536,-2.4543,0,0,0,0,0,-2.4349,-2.4387,-2.4376,-2.438,-2.4398,-2.442,-2.4422,-2.4407,-2.4385,-2.4403,-2.4397,-2.4376,-2.442,-2.4398,-2.4403,-2.4429,-2.4473,-2.4477,-2.4481,-2.4524,-2.4534,-2.4543,0,0,0,0,0,0,-2.4392,-2.4387,-2.4374,-2.4412,-2.4417,-2.4413,-2.4435,-2.4418,-2.4428,-2.4424,-2.4404,-2.4404,-2.4438,-2.4436,-2.4413,-2.4474,-2.4442,-2.4448,-2.4474,-2.4483,-2.449,-2.449,-2.4375,0,0,0,0,0,-2.4406,-2.4424,-2.4419,-2.4453,-2.4456,-2.4445,-2.4454,-2.4442,-2.4446,-2.4448,-2.4444,-2.4448,-2.4463,-2.4473,-2.4485,-2.4527,-2.4527,-2.4548,-2.4555,-2.4561,-2.4566,-2.4589,-2.4598,-2.4497,-2.4497,-2.4497,0,0,-2.4434,-2.4434,-2.4447,-2.4462,-2.4464,-2.4483,-2.4447,-2.4469,-2.4483,-2.445,-2.4479,-2.4477,-2.448,-2.4517,-2.4532,-2.4516,-2.4594,-2.4567,-2.4572,-2.4573,-2.4594,-2.4604,-2.4612,-2.45,-2.4499,-2.4499,0,0,-2.4497,-2.4499,-2.4528,-2.4531,-2.4535,-2.4528,-2.4535,-2.4534,-2.4531,-2.456,-2.4536,-2.4552,-2.4578,-2.4581,-2.4586,-2.4651,-2.4632,-2.4656,-2.4695,-2.4717,-2.4725,-2.4732,-2.4756,-2.4764,-2.466,-2.4661,-2.4661,0,-2.4532,-2.4561,-2.4545,-2.4569,-2.4576,-2.4549,-2.4578,-2.4582,-2.459,-2.4595,-2.4577,-2.4609,-2.4609,-2.4646,-2.4662,-2.4667,-2.4675,-2.4656,-2.4726,-2.4732,-2.4739,-2.4761,-2.477,-2.4663,-2.4663,-2.4663,-2.4663,0,-2.4604,-2.4624,-2.4648,-2.4657,-2.4667,-2.4693,-2.4681,-2.4693,-2.468,-2.4675,-2.4704,-2.4704,-2.4716,-2.4724,-2.4711,-2.476,-2.475,-2.4729,-2.4697,-2.4752,-2.4772,-2.478,-2.4668,-2.4667,-2.4666,-2.4665,0,0,-2.4693,-2.4694,-2.4703,-2.4707,-2.471,-2.4725,-2.4751,-2.4764,-2.4774,-2.4781,-2.4802,-2.4824,-2.4805,-2.4811,-2.4799,-2.4818,-2.487,-2.4795,-2.4795,-2.4809,-2.4924,-2.494,-2.495,-2.4857,-2.4859,-2.486,-2.4923,0,-2.4755,-2.4799,-2.4786,-2.483,-2.4848,-2.4823,-2.4845,-2.4849,-2.4844,-2.4859,-2.4853,-2.487,-2.4844,-2.4847,-2.4865,-2.486,-2.4893,-2.4855,-2.4876,-2.4877,-2.4877,-2.496,-2.4977,-2.5037,-2.4931,-2.4933,-2.4934,0,-2.4832,-2.4843,-2.489,-2.489,-2.4898,-2.4918,-2.4929,-2.4944,-2.4948,-2.4943,-2.495,-2.4934,-2.4958,-2.4926,-2.496,-2.4934,-2.4942,-2.4941,-2.4943,-2.4945,-2.4909,-2.4965,-2.5055,-2.5065,-2.4946,-2.4945,-2.4944,0,-2.4894,-2.492,-2.4951,-2.4955,-2.4956,-2.4971,-2.4972,-2.4975,-2.4984,-2.4993,-2.4999,-2.5011,-2.5018,-2.5027,-2.5015,-2.4992,-2.505,-2.5017,-2.5047,-2.5047,-2.506,-2.506,-2.5154,-2.5065,-2.5065,-2.5065,-2.5064,0,-2.4964,-2.4994,-2.4979,-2.4998,-2.503,-2.5014,-2.5047,-2.5045,-2.5047,-2.5065,-2.5043,-2.5061,-2.5043,-2.5059,-2.5049,-2.5078,-2.5081,-2.5078,-2.5075,-2.508,-2.5081,-2.5086,-2.5081,-2.5067,-2.5066,-2.5066,-2.5065,0,-2.5038,-2.5029,-2.5062,-2.5061,-2.5061,-2.5085,-2.5084,-2.5101,-2.5095,-2.5119,-2.5123,-2.5114,-2.5131,-2.5119,-2.5137,-2.513,-2.5169,-2.516,-2.5168,-2.5166,-2.5197,-2.5194,-2.5298,-2.5311,-2.5213,-2.5214,-2.5214,0,-2.5084,-2.5106,-2.5108,-2.5119,-2.5122,-2.514,-2.5149,-2.5134,-2.5145,-2.5152,-2.5169,-2.5184,-2.5196,-2.5225,-2.5219,-2.5233,-2.5224,-2.5259,-2.5226,-2.5231,-2.5225,-2.5224,-2.5227,-2.5266,-2.5267,-2.5268,-2.5269,0,-2.5166,-2.5161,-2.5176,-2.519,-2.5202,-2.5211,-2.5219,-2.5229,-2.5214,-2.5227,-2.5246,-2.5255,-2.5273,-2.5289,-2.53,-2.53,-2.5283,-2.528,-2.5288,-2.5293,-2.5297,-2.5296,-2.5187,-2.5278,-2.5277,-2.5276,-2.5276,-2.5275,-2.5228,-2.5247,-2.5251,-2.5269,-2.5273,-2.5281,-2.5298,-2.5295,-2.531,-2.5324,-2.5314,-2.5336,-2.534,-2.5353,-2.5355,-2.5372,-2.5357,-2.5368,-2.5371,-2.5374,-2.5379,-2.5295,-2.5374,-2.5373,-2.5373,-2.5373,-2.5373,0,-2.531,-2.5312,-2.5328,-2.534,-2.5354,-2.5337,-2.5345,-2.5357,-2.5377,-2.5382,-2.5394,-2.5415,-2.5431,-2.5427,-2.5441,-2.5455,-2.5447,-2.5459,-2.5458,-2.5458,-2.5391,-2.5383,-2.5465,-2.5465,-2.5465,-2.5465,-2.5465,-2.5465,-2.5354,-2.5385,-2.5381,-2.5414,-2.5416,-2.5438,-2.5444,-2.5451,-2.5455,-2.548,-2.5493,-2.5491,-2.5492,-2.5506,-2.552,-2.5518,-2.5524,-2.554,-2.5535,-2.5472,-2.5463,-2.5454,-2.5447,-2.5541,-2.5541,-2.5601,-2.5602,-2.5602]}]]